[[{"header":{"parameterUnit":"m.s-1","parameterCategory":2,"la1":30.2991,"la2":30.254,"lo1":-89.0895,"lo2":-89.0444,"dy":0.0017,"dx":0.0017,"nx":28,"ny":28,"refTime":"2026-01-29T03:00:00:Z","depth":"0","parameterNumber":2,"parameterNumberName":"U-component_of_CURRENTS"},"data":[0,0,0,0,0,0,0,0,0,0,0,0,0,0,0,0,0,0,0,0,0,0,0,0,0,0,0,0,0,0,0,0,0,0,0,0,0,0,0,0,0,0,0,0,0,0,0,0,0,0,0,0,0,0,0,0,0,0,0.3956,0.3957,0,0.4,0.4001,0.4001,0.3989,0.3989,0.3988,0.3988,0.3983,0.3983,0.3983,0,0,0,0,0,0,0,0,0,0,0,0,0,0.3859,0.386,0.3956,0.3957,0.3958,0.4,0.4001,0.4001,0.3989,0.3989,0.3988,0.3987,0.3983,0.3983,0.3983,0,0,0,0,0,0,0,0,0,0,0,0,0,0.3898,0.3861,0.3956,0.396,0.3961,0.4,0.4001,0.4001,0.3989,0.3989,0.3988,0.3987,0.3982,0.3983,0.3984,0.4004,0,0,0.3985,0.3986,0,0,0,0,0,0,0,0,0.3896,0.3901,0.3958,0.3959,0.3961,0.3991,0.3965,0.4001,0.399,0.3975,0.3987,0.3987,0.3984,0.3984,0.399,0.4004,0.4003,0.3985,0.3986,0.3986,0.3986,0,0,0,0,0,0,0,0.3893,0.39,0.397,0.3959,0.3961,0.3959,0.3963,0.3971,0.398,0.3976,0.3976,0.3987,0.3984,0.399,0.399,0.4003,0.3985,0.3986,0.3986,0.3986,0.409,0.4092,0,0,0,0,0,0,0.3897,0.3897,0.3968,0.3972,0.393,0.3961,0.3966,0.398,0.3981,0.3982,0.3988,0.3986,0.3989,0.3989,0.399,0.4083,0.3986,0.3987,0.3987,0.4087,0.409,0.4093,0,0,0,0,0,0,0.3894,0.3903,0.3967,0.3938,0.3946,0.3964,0.3979,0.3981,0.3992,0.3991,0.399,0.3998,0.3988,0.3989,0.4017,0.408,0.3987,0.3987,0.4085,0.4088,0.4092,0.4226,0,0,0,0,0,0,0.3891,0.3902,0.3911,0.3938,0.3948,0.4003,0.3981,0.3983,0.4002,0.4,0.4,0.3998,0.3988,0.4017,0.4018,0.4079,0.3988,0.4082,0.4086,0.409,0.4218,0.4234,0.4247,0,0,0,0,0,0.3888,0.3913,0.3911,0.392,0.3961,0.4005,0.401,0.4016,0.4003,0.402,0.4024,0.3998,0.4046,0.4019,0.402,0.4083,0.4079,0.4085,0.409,0.4212,0.4231,0.4246,0,0,0,0,0,0,0.3879,0.3915,0.3914,0.3949,0.3978,0.4004,0.4026,0.4025,0.404,0.4041,0.4024,0.4025,0.4076,0.4056,0.4027,0.4125,0.4061,0.4067,0.4154,0.4171,0.4185,0.4309,0.3988,0,0,0,0,0,0.3881,0.3909,0.394,0.397,0.3988,0.4005,0.4022,0.4032,0.4051,0.4056,0.4056,0.4066,0.4099,0.4114,0.4127,0.4177,0.425,0.4219,0.4233,0.4245,0.4347,0.4491,0.4529,0.4111,0.4111,0.411,0,0,0.3892,0.3912,0.3931,0.397,0.3993,0.4071,0.4013,0.4055,0.4132,0.4055,0.4138,0.4111,0.4121,0.4185,0.4207,0.4177,0.4395,0.4252,0.4262,0.4361,0.4501,0.4543,0.458,0.4114,0.4114,0.4113,0,0,0.3968,0.3942,0.4016,0.4043,0.4088,0.4106,0.4123,0.4154,0.4175,0.4235,0.4216,0.4247,0.4258,0.4312,0.4335,0.4439,0.446,0.4406,0.459,0.4725,0.4763,0.4797,0.4921,0.4965,0.4418,0.4418,0.4419,0,0.3997,0.4074,0.4043,0.4128,0.4172,0.4136,0.4242,0.427,0.4308,0.4355,0.428,0.4379,0.4352,0.4508,0.4541,0.4483,0.4556,0.4518,0.4751,0.4786,0.4819,0.4938,0.4985,0.4426,0.4425,0.4424,0.4423,0,0.4156,0.4201,0.4242,0.4343,0.438,0.4447,0.4487,0.4529,0.4521,0.4553,0.4656,0.4628,0.4702,0.4675,0.4646,0.4862,0.4835,0.4746,0.4719,0.4871,0.4983,0.5031,0.4436,0.4433,0.4431,0.4429,0,0,0.4285,0.4351,0.4365,0.4416,0.4493,0.4535,0.467,0.4783,0.4885,0.4888,0.5036,0.5073,0.5038,0.5069,0.5018,0.5136,0.5383,0.5059,0.5063,0.5207,0.5705,0.559,0.5629,0.5329,0.5339,0.5346,0.5682,0,0.4437,0.4585,0.4602,0.4748,0.482,0.4831,0.4953,0.5037,0.5083,0.5198,0.5212,0.53,0.5193,0.5214,0.533,0.5361,0.5519,0.5303,0.5521,0.553,0.5429,0.5685,0.5362,0.5628,0.5728,0.5736,0.5742,0,0.4609,0.4673,0.4826,0.4913,0.4954,0.5043,0.5202,0.5308,0.546,0.5498,0.561,0.5598,0.5778,0.5625,0.5885,0.5748,0.5795,0.5812,0.5822,0.573,0.5506,0.5496,0.571,0.55,0.5814,0.5808,0.5803,0,0.4674,0.4823,0.4926,0.4962,0.5081,0.5165,0.5243,0.5396,0.5497,0.5697,0.5787,0.5957,0.6041,0.6156,0.6171,0.6063,0.6441,0.6266,0.6239,0.6228,0.6016,0.5971,0.6086,0.6539,0.6539,0.6538,0.6537,0,0.4799,0.4885,0.4949,0.4998,0.5142,0.5209,0.5385,0.5496,0.5674,0.5822,0.593,0.6087,0.6187,0.6351,0.635,0.6469,0.6594,0.6399,0.6358,0.6043,0.5999,0.5849,0.5774,0.655,0.6547,0.6545,0.6543,0,0.4847,0.4891,0.5001,0.5117,0.5158,0.525,0.5416,0.5559,0.5723,0.5935,0.6008,0.626,0.6476,0.6561,0.6763,0.6695,0.6608,0.6801,0.6423,0.6333,0.6037,0.5981,0.6033,0.5857,0.6856,0.6856,0.6856,0,0.4903,0.4951,0.5043,0.5101,0.5153,0.5285,0.5398,0.5561,0.5695,0.6021,0.6129,0.6423,0.656,0.6834,0.6794,0.6858,0.6648,0.6625,0.6365,0.6106,0.6015,0.5803,0.5634,0.6129,0.6123,0.6118,0.6114,0,0.5009,0.5006,0.5069,0.5146,0.5245,0.5358,0.5504,0.559,0.5806,0.5947,0.6159,0.6295,0.6566,0.6491,0.6616,0.6597,0.6274,0.6525,0.6367,0.5619,0.5298,0.507,0.5818,0.607,0.6075,0.6078,0.608,0.6082,0.5084,0.5102,0.5136,0.5182,0.5295,0.5375,0.5394,0.5528,0.5637,0.5731,0.6002,0.6029,0.6141,0.6233,0.6224,0.5963,0.6001,0.5719,0.5731,0.5586,0.5249,0.5923,0.6032,0.6036,0.6039,0.6043,0.6045,0,0.5156,0.5132,0.5182,0.52,0.5224,0.5302,0.542,0.5357,0.5341,0.5461,0.5509,0.5467,0.5432,0.5486,0.5365,0.517,0.493,0.503,0.4638,0.4552,0.5249,0.5037,0.4798,0.4798,0.4798,0.4798,0.4799,0.4799,0.519,0.5189,0.5117,0.5069,0.5077,0.5025,0.5014,0.4941,0.4935,0.4738,0.4609,0.4675,0.4891,0.494,0.4709,0.4589,0.4244,0.4061,0.4124,0.4555,0.4616,0.4674,0.4455,0.4097,0.4097,0.3141,0.3134,0.3129]},{"header":{"parameterUnit":"m.s-1","parameterCategory":2,"la1":30.2991,"la2":30.254,"lo1":-89.0895,"lo2":-89.0444,"dy":0.0017,"dx":0.0017,"nx":28,"ny":28,"refTime":"2026-01-29T03:00:00:Z","depth":"0","parameterNumber":3,"parameterNumberName":"V-component_of_CURRENTS"},"data":[0,0,0,0,0,0,0,0,0,0,0,0,0,0,0,0,0,0,0,0,0,0,0,0,0,0,0,0,0,0,0,0,0,0,0,0,0,0,0,0,0,0,0,0,0,0,0,0,0,0,0,0,0,0,0,0,0,0,0.019,0.0189,0,0.0118,0.0117,0.0116,0.0056,0.0056,0.0056,0.0055,-0.0062,-0.0064,-0.0067,0,0,0,0,0,0,0,0,0,0,0,0,0,0.0183,0.0184,0.019,0.0189,0.0189,0.0118,0.0117,0.0116,0.0057,0.0056,0.0056,0.0055,-0.0061,-0.0064,-0.0067,0,0,0,0,0,0,0,0,0,0,0,0,0,0.0153,0.0184,0.019,0.0153,0.0149,0.0119,0.0117,0.0116,0.0057,0.0056,0.0056,0.0055,-0.006,-0.0064,-0.0068,-0.0083,0,0,-0.0081,-0.0082,0,0,0,0,0,0,0,0,0.0155,0.0153,0.0159,0.0155,0.0151,0.0099,0.0072,0.0048,0.0057,0.0088,0.0055,0.0055,-0.001,-0.0018,-0.0034,-0.0089,-0.0094,-0.0081,-0.0084,-0.0085,-0.0087,0,0,0,0,0,0,0,0.0158,0.0156,0.0158,0.0158,0.0154,0.0108,0.0104,0.0067,0.004,0.0086,0.0082,0.0079,-0.0013,-0.003,-0.0038,-0.0095,-0.0081,-0.0085,-0.0087,-0.0089,-0.0162,-0.0162,0,0,0,0,0,0,0.0178,0.0158,0.0161,0.0157,0.0156,0.011,0.0105,0.0113,0.0041,0.0031,0.008,0.0077,-0.0023,-0.0033,-0.0042,-0.0037,-0.0085,-0.0089,-0.0092,-0.0163,-0.0162,-0.0162,0,0,0,0,0,0,0.0179,0.018,0.0164,0.0157,0.0152,0.0111,0.0121,0.0112,0.01,0.0038,0.0026,0.0078,-0.0024,-0.0036,-0.0065,-0.0043,-0.0091,-0.0095,-0.0163,-0.0163,-0.0162,-0.0044,0,0,0,0,0,0,0.0179,0.0181,0.019,0.0159,0.0154,0.0162,0.0121,0.0111,0.0101,0.0096,0.0032,0.002,-0.0025,-0.0058,-0.0069,-0.0049,-0.0098,-0.0164,-0.0163,-0.0162,-0.0048,-0.0039,-0.0031,0,0,0,0,0,0.0179,0.0208,0.0191,0.0191,0.017,0.0163,0.0156,0.0121,0.0101,0.0106,0.006,0.0022,-0.006,-0.0061,-0.0074,-0.0055,-0.0165,-0.0163,-0.0162,-0.0052,-0.0041,-0.0031,0,0,0,0,0,0,0.0211,0.0204,0.0185,0.0209,0.0191,0.0155,0.0156,0.0132,0.0099,0.0092,0.0029,0.0015,-0.0004,-0.0047,-0.0047,-0.0075,-0.0118,-0.012,-0.0031,-0.002,-0.0012,0.0029,-0.0102,0,0,0,0,0,0.0223,0.0241,0.0219,0.0236,0.0232,0.0194,0.0185,0.0164,0.0133,0.0118,0.0074,0.0026,-0.001,-0.0028,-0.007,-0.0081,-0.0105,-0.0079,-0.007,-0.0063,-0.0039,-0.0066,-0.0056,-0.0157,-0.0157,-0.0157,0,0,0.0239,0.0237,0.0246,0.0243,0.0224,0.0243,0.0187,0.0186,0.0201,0.011,0.0111,0.0053,-0.0008,-0.0022,-0.0034,-0.0053,-0.0043,-0.0061,-0.0054,-0.0034,-0.0063,-0.0053,-0.0044,-0.0157,-0.0157,-0.0157,0,0,0.0293,0.028,0.0315,0.0311,0.0299,0.0279,0.0286,0.0255,0.0239,0.0226,0.0168,0.0127,0.0072,0.0037,0.0011,0.0042,0.0001,0.0027,0.0109,0.0083,0.0092,0.0099,0.0103,0.0109,0.0035,0.0035,0.0035,0,0.0311,0.0356,0.0322,0.0357,0.0369,0.0306,0.0351,0.0327,0.029,0.029,0.0243,0.0168,0.0103,0.01,0.0105,0.0064,0.0056,0.0078,0.0097,0.0104,0.0109,0.0111,0.0117,0.0041,0.004,0.004,0.0039,0,0.0397,0.0427,0.0448,0.0475,0.0481,0.0505,0.0479,0.0472,0.0435,0.041,0.0387,0.0292,0.0253,0.0219,0.0169,0.0183,0.0168,0.0111,0.0079,0.0127,0.0125,0.0129,0.0049,0.0047,0.0045,0.0044,0,0,0.0454,0.0502,0.0509,0.0545,0.0548,0.0566,0.059,0.06,0.063,0.0556,0.0588,0.049,0.0431,0.0398,0.0322,0.0293,0.031,0.0232,0.0228,0.0253,0.0287,0.0262,0.0263,0.0262,0.0263,0.0263,0.0278,0,0.053,0.0628,0.0629,0.0714,0.0762,0.0728,0.0759,0.0754,0.0732,0.0741,0.0638,0.0621,0.0503,0.0482,0.0437,0.0351,0.0324,0.0313,0.0223,0.0221,0.0205,0.0267,0.0245,0.0254,0.0282,0.0282,0.0283,0,0.0614,0.0672,0.0776,0.0844,0.0861,0.0897,0.0946,0.0972,0.0959,0.094,0.0901,0.0818,0.0767,0.0643,0.0537,0.0543,0.043,0.0348,0.0345,0.0285,0.0202,0.0204,0.026,-0.0007,0.0288,0.0288,0.0288,0,0.0675,0.0772,0.0861,0.0885,0.0949,0.0985,0.1015,0.103,0.1079,0.1072,0.1111,0.1008,0.0992,0.0832,0.0653,0.06,0.0545,0.044,0.0313,0.031,0.0256,0.0247,0.0057,0.0355,0.0355,0.0355,0.0355,0,0.0751,0.0821,0.0896,0.0944,0.1052,0.1066,0.1172,0.1185,0.1235,0.1345,0.1221,0.1298,0.104,0.0965,0.075,0.0583,0.0618,0.0358,0.0317,0.0297,0.0292,0.0026,-0.0124,0.0355,0.0355,0.0355,0.0355,0,0.0792,0.084,0.0952,0.1046,0.1082,0.1159,0.1277,0.1353,0.14,0.1548,0.1555,0.1536,0.1461,0.1202,0.0982,0.0749,0.0399,0.0466,0.0478,0.0437,0.003,-0.0111,-0.0332,-0.0422,0.0325,0.0324,0.0324,0,0.0821,0.0882,0.1025,0.1101,0.1146,0.1262,0.1341,0.1414,0.1524,0.1727,0.1816,0.18,0.1855,0.1533,0.109,0.0725,0.0439,0.0427,0.0287,0.0034,-0.0155,-0.0279,-0.0346,0.027,0.0269,0.0268,0.0268,0,0.0877,0.0923,0.1023,0.1177,0.1281,0.1417,0.1554,0.1672,0.1817,0.2013,0.2278,0.2357,0.2061,0.1704,0.1155,0.0868,0.0226,0.04,0.0125,-0.0211,-0.0343,-0.0456,0.025,0.0262,0.0263,0.0263,0.0263,0.0264,0.0917,0.0993,0.1117,0.1269,0.1401,0.1571,0.1719,0.1925,0.2193,0.2549,0.2613,0.2819,0.2199,0.1473,0.1058,0.019,0.0199,-0.0104,-0.0246,-0.034,-0.0465,0.025,0.0212,0.0212,0.0212,0.0212,0.0213,0,0.0968,0.1058,0.1198,0.1393,0.1559,0.161,0.1865,0.2075,0.2464,0.2794,0.3088,0.2858,0.2148,0.1353,0.0196,-0.0368,-0.0579,-0.0685,-0.0891,-0.0922,-0.0298,-0.0341,-0.0484,-0.0484,-0.0484,-0.0484,-0.0483,-0.0483,0.0998,0.1129,0.1207,0.1488,0.1639,0.1885,0.2054,0.2416,0.27,0.3141,0.3258,0.3285,0.2566,0.0589,-0.0703,-0.0975,-0.138,-0.1498,-0.1641,-0.1272,-0.1229,-0.1189,-0.1267,-0.1602,-0.1604,-0.221,-0.2217,-0.2222]}],[{"header":{"parameterUnit":"m.s-1","parameterCategory":2,"la1":30.2991,"la2":30.254,"lo1":-89.0895,"lo2":-89.0444,"dy":0.0017,"dx":0.0017,"nx":28,"ny":28,"refTime":"2026-01-29T03:00:00:Z","depth":"2","parameterNumber":2,"parameterNumberName":"U-component_of_CURRENTS"},"data":[0,0,0,0,0,0,0,0,0,0,0,0,0,0,0,0,0,0,0,0,0,0,0,0,0,0,0,0,0,0,0,0,0,0,0,0,0,0,0,0,0,0,0,0,0,0,0,0,0,0,0,0,0,0,0,0,0,0,0.3306,0.3307,0,0.3361,0.3361,0.3362,0.3367,0.3367,0.3367,0.3366,0.3389,0.339,0.3391,0,0,0,0,0,0,0,0,0,0,0,0,0,0.3203,0.3205,0.3306,0.3307,0.3308,0.3361,0.3361,0.3362,0.3367,0.3367,0.3367,0.3366,0.3389,0.339,0.3391,0,0,0,0,0,0,0,0,0,0,0,0,0,0.3248,0.3205,0.3306,0.332,0.3322,0.3361,0.3361,0.3362,0.3367,0.3367,0.3367,0.3366,0.3388,0.339,0.3391,0.3406,0,0,0.3395,0.3395,0,0,0,0,0,0,0,0,0.3246,0.3252,0.3317,0.3319,0.3321,0.336,0.3334,0.3376,0.3367,0.3346,0.3366,0.3366,0.3379,0.3381,0.3387,0.3407,0.3408,0.3395,0.3395,0.3396,0.3396,0,0,0,0,0,0,0,0.3243,0.3249,0.3324,0.3318,0.3321,0.3323,0.3328,0.3341,0.336,0.3348,0.3349,0.3361,0.3379,0.3386,0.3388,0.3408,0.3395,0.3396,0.3396,0.3397,0.3512,0.3514,0,0,0,0,0,0,0.3244,0.3247,0.3322,0.3326,0.3286,0.3325,0.3331,0.3345,0.3361,0.3365,0.3362,0.3362,0.3384,0.3386,0.3389,0.3476,0.3396,0.3397,0.3398,0.3509,0.3512,0.3515,0,0,0,0,0,0,0.3242,0.325,0.332,0.329,0.33,0.3328,0.3343,0.3346,0.3367,0.3373,0.3374,0.338,0.3384,0.3387,0.3424,0.3474,0.3398,0.3399,0.3507,0.351,0.3514,0.3606,0,0,0,0,0,0,0.3238,0.3249,0.3262,0.329,0.3302,0.3359,0.3344,0.3348,0.3376,0.3376,0.3389,0.339,0.3384,0.3423,0.3425,0.3474,0.34,0.3504,0.3508,0.3512,0.36,0.3612,0.3623,0,0,0,0,0,0.3234,0.3258,0.3263,0.3272,0.3318,0.3361,0.3367,0.3382,0.3377,0.3396,0.3409,0.339,0.3452,0.3425,0.3428,0.3479,0.3502,0.3507,0.3512,0.3595,0.361,0.3622,0,0,0,0,0,0,0.3221,0.3262,0.3267,0.3302,0.3336,0.3364,0.3387,0.3393,0.3418,0.3422,0.3415,0.3418,0.3472,0.3462,0.3432,0.3526,0.3476,0.3482,0.3538,0.3552,0.3563,0.3601,0.3401,0,0,0,0,0,0.3224,0.3253,0.329,0.3319,0.3339,0.3364,0.3384,0.3399,0.3424,0.3434,0.3444,0.3462,0.3494,0.3511,0.353,0.3577,0.3609,0.3613,0.3625,0.3634,0.3669,0.3744,0.3765,0.3532,0.3532,0.3532,0,0,0.3228,0.3255,0.3271,0.3319,0.3345,0.339,0.3375,0.3419,0.3464,0.3433,0.3492,0.3501,0.3515,0.3573,0.3597,0.3572,0.3723,0.3641,0.3649,0.3679,0.3752,0.3774,0.3795,0.3535,0.3535,0.3534,0,0,0.3255,0.3275,0.3311,0.3345,0.3396,0.3418,0.3435,0.3476,0.3502,0.3557,0.3555,0.3602,0.3631,0.3668,0.3686,0.3773,0.3778,0.377,0.3862,0.3934,0.3954,0.3972,0.4064,0.409,0.3777,0.3777,0.3777,0,0.3258,0.3305,0.3328,0.3376,0.3412,0.3435,0.3486,0.3523,0.3572,0.361,0.3589,0.3683,0.3688,0.3783,0.3819,0.3803,0.3846,0.3805,0.395,0.3968,0.3985,0.4075,0.4102,0.3782,0.3782,0.3781,0.3781,0,0.3313,0.3355,0.3383,0.3449,0.3492,0.354,0.3596,0.3641,0.3669,0.371,0.3804,0.3824,0.3887,0.3893,0.3887,0.4013,0.4008,0.3953,0.3916,0.4015,0.4103,0.413,0.379,0.3788,0.3786,0.3785,0,0,0.332,0.3402,0.3413,0.3452,0.3535,0.3573,0.3661,0.3747,0.3819,0.3869,0.3969,0.4035,0.4056,0.4081,0.408,0.4145,0.4304,0.4111,0.4113,0.4207,0.4494,0.4388,0.4407,0.4268,0.4272,0.4276,0.4515,0,0.3359,0.3432,0.3479,0.3568,0.3615,0.3673,0.3753,0.3838,0.391,0.4011,0.4068,0.416,0.4125,0.417,0.4236,0.4291,0.4375,0.4247,0.4382,0.4388,0.4283,0.4434,0.4058,0.4229,0.4541,0.4545,0.4548,0,0.3398,0.3449,0.3521,0.3625,0.3654,0.3716,0.3848,0.3926,0.4073,0.4142,0.4252,0.4296,0.444,0.4365,0.4551,0.4472,0.451,0.4535,0.4543,0.4434,0.4331,0.4177,0.4265,0.4592,0.4589,0.4586,0.4583,0,0.3377,0.348,0.3529,0.3565,0.3687,0.3746,0.3821,0.3964,0.4058,0.424,0.4322,0.4482,0.4579,0.4657,0.4722,0.466,0.4901,0.481,0.476,0.4753,0.4457,0.4416,0.4944,0.4944,0.4944,0.4943,0.4942,0,0.3394,0.3441,0.352,0.3561,0.3649,0.3741,0.3863,0.3972,0.4146,0.4268,0.4386,0.4502,0.4655,0.4784,0.4813,0.4895,0.4986,0.4835,0.4822,0.4479,0.4439,0.4751,0.4725,0.4952,0.495,0.4948,0.4947,0,0.3356,0.3408,0.347,0.3591,0.3639,0.3696,0.3873,0.3941,0.4133,0.4299,0.4367,0.4594,0.4766,0.4882,0.5053,0.5014,0.5088,0.5075,0.4682,0.4618,0.4878,0.4855,0.5086,0.5085,0.5083,0.5082,0.5082,0,0.3325,0.335,0.3463,0.3488,0.3544,0.3648,0.3702,0.3913,0.3995,0.4323,0.4372,0.4637,0.4752,0.498,0.4989,0.5072,0.5114,0.4746,0.4545,0.4937,0.4901,0.4879,0.4858,0.421,0.4202,0.4196,0.4191,0,0.3277,0.331,0.3367,0.3405,0.3454,0.352,0.363,0.3718,0.3959,0.4104,0.4302,0.4448,0.4686,0.4613,0.4745,0.4721,0.4703,0.4616,0.5158,0.4213,0.4124,0.4084,0.409,0.4133,0.4139,0.4143,0.4146,0.4148,0.3208,0.3224,0.3272,0.3308,0.3342,0.3366,0.336,0.3502,0.3637,0.3835,0.4079,0.4168,0.4294,0.4298,0.4207,0.4152,0.4454,0.4246,0.4261,0.4284,0.412,0.4031,0.3996,0.4001,0.4005,0.4008,0.4012,0,0.3086,0.3136,0.3161,0.3168,0.3113,0.3209,0.3261,0.3232,0.33,0.3561,0.3701,0.3517,0.3529,0.3644,0.3474,0.3503,0.3421,0.3362,0.32,0.3263,0.3319,0.3097,0.2707,0.2702,0.2698,0.2694,0,0,0.3021,0.3024,0.3056,0.2948,0.2934,0.2806,0.2798,0.2811,0.2924,0.3012,0.3067,0.3394,0.3561,0.3078,0.3037,0.2832,0.3015,0.2736,0.3796,0.367,0.3718,0.3861,0.3599,0,0,0,0,0]},{"header":{"parameterUnit":"m.s-1","parameterCategory":2,"la1":30.2991,"la2":30.254,"lo1":-89.0895,"lo2":-89.0444,"dy":0.0017,"dx":0.0017,"nx":28,"ny":28,"refTime":"2026-01-29T03:00:00:Z","depth":"2","parameterNumber":3,"parameterNumberName":"V-component_of_CURRENTS"},"data":[0,0,0,0,0,0,0,0,0,0,0,0,0,0,0,0,0,0,0,0,0,0,0,0,0,0,0,0,0,0,0,0,0,0,0,0,0,0,0,0,0,0,0,0,0,0,0,0,0,0,0,0,0,0,0,0,0,0,0.0148,0.0148,0,0.0085,0.0084,0.0083,0.0031,0.003,0.003,0.003,-0.0075,-0.0077,-0.0079,0,0,0,0,0,0,0,0,0,0,0,0,0,0.0142,0.0143,0.0148,0.0148,0.0147,0.0085,0.0084,0.0082,0.0031,0.003,0.003,0.0029,-0.0074,-0.0077,-0.008,0,0,0,0,0,0,0,0,0,0,0,0,0,0.0116,0.0143,0.0149,0.0116,0.0112,0.0085,0.0084,0.0082,0.0031,0.003,0.003,0.0029,-0.0073,-0.0076,-0.008,-0.0094,0,0,-0.0091,-0.0093,0,0,0,0,0,0,0,0,0.0118,0.0116,0.0121,0.0118,0.0114,0.0067,0.0043,0.0022,0.0031,0.0059,0.003,0.0029,-0.0029,-0.0036,-0.005,-0.0099,-0.0103,-0.0092,-0.0094,-0.0096,-0.0097,0,0,0,0,0,0,0,0.012,0.0118,0.0121,0.0121,0.0116,0.0076,0.0072,0.0039,0.0016,0.0057,0.0053,0.005,-0.0032,-0.0046,-0.0053,-0.0105,-0.0092,-0.0095,-0.0097,-0.0099,-0.0166,-0.0165,0,0,0,0,0,0,0.0138,0.012,0.0123,0.0119,0.0118,0.0077,0.0072,0.0081,0.0017,0.0008,0.0051,0.0048,-0.004,-0.0049,-0.0057,-0.0057,-0.0096,-0.0099,-0.0101,-0.0166,-0.0166,-0.0165,0,0,0,0,0,0,0.0138,0.0139,0.0125,0.0119,0.0115,0.0078,0.0087,0.008,0.0069,0.0013,0.0003,0.0049,-0.0041,-0.0052,-0.0078,-0.0062,-0.0101,-0.0104,-0.0167,-0.0166,-0.0165,-0.007,0,0,0,0,0,0,0.0138,0.014,0.0148,0.0121,0.0116,0.0122,0.0088,0.0079,0.0069,0.0065,0.0008,-0.0002,-0.0042,-0.0072,-0.0082,-0.0068,-0.0107,-0.0167,-0.0166,-0.0166,-0.0074,-0.0066,-0.006,0,0,0,0,0,0.0138,0.0164,0.015,0.0149,0.0131,0.0123,0.0117,0.0086,0.007,0.0073,0.0033,-0.0,-0.0074,-0.0075,-0.0086,-0.0073,-0.0168,-0.0167,-0.0166,-0.0077,-0.0068,-0.006,0,0,0,0,0,0,0.0166,0.016,0.0144,0.0165,0.0149,0.0116,0.0117,0.0095,0.0066,0.0061,0.0005,-0.0008,-0.0027,-0.0063,-0.0063,-0.0091,-0.0126,-0.0127,-0.0055,-0.0047,-0.004,-0.0013,-0.011,0,0,0,0,0,0.0176,0.0193,0.0173,0.0188,0.0185,0.015,0.0142,0.0124,0.0096,0.0083,0.0043,0.0001,-0.0032,-0.0049,-0.0086,-0.0098,-0.0138,-0.0099,-0.0092,-0.0085,-0.0072,-0.0125,-0.0122,-0.0162,-0.0162,-0.0162,0,0,0.019,0.0189,0.0196,0.0194,0.0177,0.0191,0.0144,0.0143,0.0151,0.0076,0.0072,0.0023,-0.0031,-0.0046,-0.0058,-0.0073,-0.0093,-0.0084,-0.0078,-0.0068,-0.0124,-0.012,-0.0117,-0.0161,-0.0161,-0.0161,0,0,0.0233,0.0225,0.0254,0.0251,0.0239,0.0221,0.0227,0.02,0.0183,0.017,0.012,0.0085,0.0035,0.0002,-0.0022,0.0002,-0.0056,-0.0013,0.0048,-0.0004,-0.0001,0.0001,-0.0033,-0.0035,-0.0007,-0.0006,-0.0006,0,0.0247,0.0285,0.0259,0.0286,0.0297,0.0244,0.0281,0.0256,0.0222,0.0217,0.0183,0.011,0.006,0.0045,0.0051,0.002,-0.0016,0.0023,0.0006,0.0007,0.0008,-0.0028,-0.0031,-0.0002,-0.0002,-0.0003,-0.0003,0,0.0314,0.0342,0.036,0.0381,0.0386,0.0407,0.0381,0.0371,0.034,0.0314,0.0285,0.0208,0.017,0.0143,0.0103,0.0089,0.0061,0.002,-0.0011,0.0018,-0.0022,-0.0027,0.0005,0.0003,0.0002,0.0001,0,0,0.0358,0.04,0.0407,0.0443,0.0443,0.0462,0.047,0.0471,0.049,0.0421,0.0434,0.0354,0.0306,0.0275,0.0212,0.0161,0.0131,0.0102,0.0097,0.0078,0.0028,-0.0012,-0.0022,0.0083,0.0083,0.0082,0.0002,0,0.0419,0.0505,0.0503,0.0581,0.0626,0.0593,0.061,0.0598,0.0573,0.0565,0.0468,0.045,0.0358,0.0344,0.0277,0.0174,0.0121,0.0157,-0.0005,-0.001,-0.0041,-0.0028,0.0013,-0.0057,-0.0003,-0.0004,-0.0005,0,0.0487,0.0543,0.0635,0.07,0.0716,0.0744,0.078,0.0793,0.0755,0.0736,0.0685,0.0606,0.0532,0.0441,0.0274,0.0302,0.0179,0.0082,0.0075,0.0004,-0.0058,-0.0081,-0.0069,-0.0014,-0.0013,-0.0012,-0.0012,0,0.0552,0.0635,0.0719,0.0742,0.0797,0.0826,0.0848,0.0843,0.0887,0.085,0.0868,0.0745,0.0709,0.0527,0.0322,0.03,0.0128,0.0071,-0.0082,-0.0086,-0.01,-0.0105,-0.0054,-0.0054,-0.0054,-0.0054,-0.0053,0,0.0628,0.0694,0.0757,0.0808,0.0911,0.0911,0.1008,0.1006,0.1032,0.1115,0.0966,0.0989,0.0728,0.0591,0.0374,0.0143,0.0167,-0.0063,-0.011,-0.0066,-0.0066,-0.0071,-0.0072,-0.0057,-0.0056,-0.0055,-0.0055,0,0.0687,0.0722,0.0831,0.0913,0.0947,0.1022,0.1136,0.1209,0.1206,0.1308,0.1305,0.119,0.1009,0.0727,0.045,0.0242,0.0002,-0.0092,-0.0013,-0.0051,-0.019,-0.0186,-0.0265,-0.0267,-0.0269,-0.027,-0.0271,0,0.073,0.0789,0.092,0.1001,0.1045,0.1159,0.1246,0.1296,0.1395,0.1445,0.1505,0.1356,0.1277,0.0835,0.0435,0.0047,-0.0006,-0.0166,-0.0215,-0.0175,-0.0213,-0.0205,-0.0198,-0.0191,-0.0192,-0.0192,-0.0192,0,0.0814,0.0849,0.0941,0.1111,0.1225,0.138,0.1509,0.1616,0.1695,0.1762,0.1822,0.1754,0.1334,0.0943,0.0403,0.0138,-0.0108,-0.0188,-0.0162,-0.0147,-0.0113,-0.0148,-0.0142,-0.0196,-0.0196,-0.0195,-0.0195,-0.0195,0.0878,0.0949,0.1067,0.123,0.1379,0.1576,0.1719,0.1856,0.202,0.2133,0.2059,0.196,0.1507,0.0806,0.0341,-0.0145,-0.0132,-0.0296,-0.0291,-0.0287,-0.0267,-0.0239,-0.034,-0.034,-0.0341,-0.0341,-0.0341,0,0.0963,0.1036,0.1185,0.1384,0.1563,0.1636,0.1882,0.2016,0.2211,0.2286,0.2306,0.1869,0.1415,0.0892,0.0174,-0.0259,-0.0287,-0.0392,-0.0324,-0.0317,-0.0312,-0.0291,-0.0372,-0.0373,-0.0375,-0.0376,0,0,0.1006,0.114,0.1208,0.1497,0.1652,0.1909,0.2062,0.2231,0.2336,0.2403,0.2343,0.2205,0.1571,0.105,0.0454,0.0049,-0.0031,-0.0035,0.0036,0.0195,0.0205,-0.0212,-0.0168,0,0,0,0,0]}],[{"header":{"parameterUnit":"m.s-1","parameterCategory":2,"la1":30.2991,"la2":30.254,"lo1":-89.0895,"lo2":-89.0444,"dy":0.0017,"dx":0.0017,"nx":28,"ny":28,"refTime":"2026-01-29T03:00:00:Z","depth":"4","parameterNumber":2,"parameterNumberName":"U-component_of_CURRENTS"},"data":[0,0,0,0,0,0,0,0,0,0,0,0,0,0,0,0,0,0,0,0,0,0,0,0,0,0,0,0,0,0,0,0,0,0,0,0,0,0,0,0,0,0,0,0,0,0,0,0,0,0,0,0,0,0,0,0,0,0,0.2196,0.2198,0,0.2295,0.2296,0.2297,0.2373,0.2374,0.2374,0.2375,0.2489,0.2491,0.2493,0,0,0,0,0,0,0,0,0,0,0,0,0,0.2063,0.2065,0.2196,0.2198,0.2199,0.2295,0.2296,0.2297,0.2372,0.2374,0.2375,0.2376,0.2488,0.2491,0.2493,0,0,0,0,0,0,0,0,0,0,0,0,0,0.2135,0.2066,0.2196,0.225,0.2256,0.2295,0.2296,0.2297,0.2372,0.2374,0.2375,0.2376,0.2487,0.249,0.2494,0.2484,0,0,0.2503,0.2505,0,0,0,0,0,0,0,0,0.213,0.2139,0.2241,0.2247,0.2254,0.2325,0.2291,0.2361,0.2372,0.2325,0.2375,0.2377,0.2436,0.2444,0.2455,0.2489,0.2494,0.2504,0.2505,0.2507,0.2508,0,0,0,0,0,0,0,0.2125,0.2135,0.2233,0.2242,0.225,0.2267,0.2278,0.2304,0.237,0.2329,0.2336,0.2351,0.244,0.2452,0.2458,0.2496,0.2503,0.2506,0.2508,0.2509,0.2681,0.2684,0,0,0,0,0,0,0.2118,0.2131,0.2229,0.2236,0.2197,0.2268,0.2281,0.2299,0.2369,0.2382,0.2349,0.2354,0.2445,0.2454,0.2463,0.2592,0.2507,0.251,0.2512,0.2679,0.2682,0.2685,0,0,0,0,0,0,0.2115,0.2126,0.2226,0.2187,0.2202,0.2269,0.2288,0.23,0.2361,0.2385,0.2398,0.2404,0.2447,0.2458,0.2535,0.2592,0.2511,0.2514,0.2676,0.268,0.2683,0.2763,0,0,0,0,0,0,0.211,0.2124,0.2156,0.2187,0.2204,0.2281,0.2288,0.2301,0.2366,0.2374,0.2435,0.2444,0.2449,0.253,0.2538,0.2595,0.2517,0.2672,0.2677,0.2682,0.2757,0.2769,0.278,0,0,0,0,0,0.2105,0.2136,0.2157,0.217,0.2238,0.2283,0.2294,0.2343,0.2368,0.2402,0.245,0.2445,0.2567,0.2534,0.2543,0.2602,0.267,0.2676,0.2682,0.2752,0.2767,0.278,0,0,0,0,0,0,0.2097,0.2148,0.2171,0.2218,0.2264,0.2297,0.2342,0.2369,0.2432,0.2457,0.2474,0.2487,0.2576,0.2578,0.2542,0.2668,0.262,0.2628,0.2671,0.2685,0.2696,0.2691,0.2519,0,0,0,0,0,0.2108,0.215,0.2193,0.2238,0.2265,0.2312,0.2345,0.238,0.2428,0.2459,0.2502,0.2552,0.2598,0.2634,0.267,0.2736,0.2741,0.2782,0.2793,0.2803,0.2806,0.2866,0.2883,0.2704,0.2704,0.2704,0,0,0.2118,0.2154,0.2179,0.2241,0.2283,0.2326,0.2337,0.2405,0.2453,0.246,0.2557,0.2595,0.2625,0.2703,0.2743,0.2719,0.286,0.2811,0.2818,0.2816,0.2874,0.2892,0.2907,0.2708,0.2708,0.2707,0,0,0.2139,0.2194,0.2229,0.2271,0.2344,0.2373,0.2402,0.2466,0.2516,0.2597,0.2621,0.2695,0.2766,0.2801,0.2823,0.2918,0.2917,0.2942,0.2999,0.3058,0.3073,0.3086,0.3124,0.314,0.295,0.295,0.295,0,0.2152,0.2198,0.2248,0.2291,0.2334,0.2397,0.2441,0.2497,0.2582,0.2627,0.2645,0.2777,0.2808,0.2894,0.2936,0.2944,0.2972,0.2942,0.3072,0.3085,0.3097,0.3132,0.3149,0.2955,0.2954,0.2954,0.2953,0,0.2179,0.2237,0.2268,0.2341,0.2394,0.245,0.2521,0.2594,0.2663,0.2712,0.2832,0.2884,0.296,0.2991,0.2996,0.3105,0.3096,0.3076,0.3032,0.3119,0.3152,0.3167,0.2961,0.2959,0.2958,0.2957,0,0,0.2148,0.2263,0.2279,0.2322,0.2429,0.2467,0.2566,0.2656,0.2734,0.2829,0.2924,0.302,0.3064,0.3093,0.3123,0.3182,0.3296,0.3178,0.3179,0.3206,0.3429,0.3225,0.3222,0.3309,0.3312,0.3315,0.3419,0,0.2159,0.2235,0.2298,0.2386,0.2428,0.2524,0.2606,0.2704,0.2804,0.2916,0.2995,0.3104,0.3099,0.3166,0.3222,0.3287,0.3341,0.3269,0.3348,0.335,0.315,0.3234,0.3324,0.3431,0.3434,0.3437,0.3439,0,0.2151,0.2207,0.2287,0.2407,0.2439,0.2509,0.2657,0.2743,0.2902,0.2991,0.3107,0.3177,0.33,0.328,0.3418,0.338,0.3414,0.3445,0.345,0.3238,0.3174,0.3325,0.3466,0.3464,0.3462,0.346,0.3458,0,0.2073,0.2198,0.2263,0.2303,0.2446,0.2517,0.2609,0.2768,0.2861,0.3058,0.3149,0.3286,0.3385,0.3453,0.3527,0.3496,0.3659,0.3614,0.3454,0.344,0.3555,0.354,0.3698,0.3698,0.3698,0.3698,0.3697,0,0.2029,0.2086,0.2241,0.227,0.2367,0.2489,0.2617,0.2738,0.2919,0.3023,0.3187,0.3283,0.344,0.3541,0.3574,0.3562,0.3698,0.3473,0.3457,0.3588,0.3575,0.3566,0.355,0.3701,0.3701,0.37,0.3699,0,0.1921,0.2025,0.2104,0.2268,0.2329,0.2401,0.2606,0.2685,0.289,0.3035,0.3107,0.3325,0.3459,0.3574,0.3707,0.3605,0.3629,0.3589,0.374,0.3729,0.3357,0.3344,0.3402,0.3396,0.3391,0.3387,0.3383,0,0.1861,0.1893,0.2078,0.2126,0.2208,0.2342,0.2422,0.2646,0.2734,0.3022,0.3062,0.3284,0.3399,0.3425,0.3561,0.3609,0.3567,0.3539,0.3417,0.335,0.3329,0.3324,0.3318,0.3374,0.3373,0.3372,0.337,0,0.1739,0.1832,0.1905,0.201,0.2104,0.2192,0.2334,0.2383,0.2629,0.284,0.2962,0.3052,0.3197,0.3299,0.3373,0.3393,0.3531,0.3482,0.3491,0.3377,0.3316,0.33,0.3301,0.3352,0.3355,0.3356,0.3357,0,0.1656,0.1681,0.1794,0.1878,0.1975,0.2005,0.2105,0.2216,0.2341,0.266,0.2697,0.2942,0.3162,0.3189,0.3255,0.3268,0.3205,0.3073,0.3102,0.3124,0.2984,0.2863,0.2754,0,0,0,0,0,0.1555,0.1576,0.1642,0.1716,0.1801,0.1864,0.2022,0.2129,0.237,0.2385,0.2541,0.267,0.2793,0.2928,0.2887,0.3117,0.3203,0.3051,0.3061,0.325,0.3271,0.3132,0,0,0,0,0,0,0.1485,0.1543,0.1592,0.1567,0.158,0.165,0.1742,0.1901,0.1936,0.2199,0.2293,0.2497,0.2667,0.2796,0.2835,0.2872,0.2817,0.3214,0.3207,0.3238,0.3257,0.3274,0.3139,0,0,0,0,0]},{"header":{"parameterUnit":"m.s-1","parameterCategory":2,"la1":30.2991,"la2":30.254,"lo1":-89.0895,"lo2":-89.0444,"dy":0.0017,"dx":0.0017,"nx":28,"ny":28,"refTime":"2026-01-29T03:00:00:Z","depth":"4","parameterNumber":3,"parameterNumberName":"V-component_of_CURRENTS"},"data":[0,0,0,0,0,0,0,0,0,0,0,0,0,0,0,0,0,0,0,0,0,0,0,0,0,0,0,0,0,0,0,0,0,0,0,0,0,0,0,0,0,0,0,0,0,0,0,0,0,0,0,0,0,0,0,0,0,0,0.0118,0.0118,0,0.0075,0.0074,0.0074,0.0039,0.0039,0.0038,0.0038,-0.0041,-0.0043,-0.0044,0,0,0,0,0,0,0,0,0,0,0,0,0,0.0112,0.0112,0.0118,0.0118,0.0117,0.0075,0.0074,0.0074,0.0039,0.0039,0.0038,0.0038,-0.004,-0.0042,-0.0045,0,0,0,0,0,0,0,0,0,0,0,0,0,0.0095,0.0112,0.0118,0.0096,0.0094,0.0075,0.0074,0.0074,0.0039,0.0038,0.0038,0.0038,-0.0039,-0.0042,-0.0045,-0.0056,0,0,-0.0054,-0.0055,0,0,0,0,0,0,0,0,0.0096,0.0095,0.01,0.0097,0.0095,0.0063,0.0043,0.0029,0.0039,0.0058,0.0038,0.0038,-0.0008,-0.0013,-0.0023,-0.006,-0.0063,-0.0054,-0.0056,-0.0057,-0.0058,0,0,0,0,0,0,0,0.0097,0.0096,0.0099,0.0099,0.0096,0.0068,0.0066,0.004,0.0025,0.0056,0.0054,0.0052,-0.001,-0.002,-0.0025,-0.0064,-0.0054,-0.0056,-0.0058,-0.0059,-0.0113,-0.0112,0,0,0,0,0,0,0.0109,0.0098,0.0101,0.0098,0.0096,0.0069,0.0066,0.0072,0.0026,0.002,0.0052,0.005,-0.0015,-0.0021,-0.0028,-0.0029,-0.0057,-0.0059,-0.0061,-0.0113,-0.0113,-0.0112,0,0,0,0,0,0,0.0109,0.011,0.0103,0.0098,0.0095,0.007,0.0077,0.0072,0.0066,0.0024,0.0016,0.0052,-0.0015,-0.0024,-0.0044,-0.0033,-0.0061,-0.0063,-0.0113,-0.0113,-0.0113,-0.0041,0,0,0,0,0,0,0.011,0.0111,0.0118,0.0099,0.0096,0.0101,0.0077,0.0071,0.0065,0.0063,0.0021,0.0013,-0.0016,-0.0039,-0.0047,-0.0037,-0.0066,-0.0114,-0.0113,-0.0113,-0.0043,-0.0038,-0.0033,0,0,0,0,0,0.011,0.0128,0.0119,0.0119,0.0108,0.0102,0.0097,0.0077,0.0066,0.0069,0.004,0.0015,-0.0041,-0.0041,-0.005,-0.0041,-0.0114,-0.0113,-0.0113,-0.0046,-0.0039,-0.0033,0,0,0,0,0,0,0.0128,0.0125,0.0115,0.0131,0.012,0.0096,0.0098,0.0083,0.0063,0.006,0.0019,0.0009,-0.0006,-0.0034,-0.0032,-0.0056,-0.0082,-0.0083,-0.0028,-0.0022,-0.0017,0.0003,-0.0068,0,0,0,0,0,0.0137,0.0149,0.0136,0.0147,0.0145,0.0122,0.0117,0.0104,0.0085,0.0075,0.0047,0.0015,-0.0011,-0.0023,-0.0052,-0.0062,-0.0101,-0.0063,-0.0058,-0.0053,-0.0044,-0.0096,-0.0095,-0.011,-0.011,-0.011,0,0,0.0146,0.0146,0.0153,0.0152,0.0141,0.0152,0.0118,0.0118,0.0125,0.007,0.0068,0.0031,-0.0011,-0.0023,-0.0032,-0.0043,-0.0071,-0.0053,-0.0048,-0.0041,-0.0095,-0.0094,-0.0093,-0.011,-0.011,-0.011,0,0,0.0177,0.0174,0.0195,0.0193,0.0187,0.0175,0.0179,0.0161,0.0149,0.0141,0.0103,0.0076,0.0039,0.0012,-0.0006,0.001,-0.0043,-0.0001,0.0044,-0.0007,-0.0006,-0.0006,-0.0055,-0.006,0.0004,0.0004,0.0004,0,0.0188,0.0217,0.0198,0.0219,0.023,0.0192,0.0221,0.0202,0.0179,0.0175,0.0151,0.0094,0.0057,0.0041,0.0046,0.0023,-0.0017,0.0026,0.0001,0.0,-0.0001,-0.0052,-0.0058,0.0008,0.0007,0.0007,0.0006,0,0.0235,0.0259,0.0272,0.029,0.0296,0.0313,0.0294,0.0288,0.0267,0.0249,0.0224,0.0165,0.0136,0.0114,0.0086,0.0067,0.0037,0.0012,-0.0012,0.0005,-0.005,-0.0058,0.0013,0.0011,0.001,0.0009,0,0,0.0264,0.03,0.0307,0.0336,0.034,0.0355,0.0361,0.0363,0.0377,0.0326,0.0332,0.0272,0.0235,0.0211,0.0162,0.0116,0.0072,0.007,0.0065,0.0027,-0.0043,-0.006,-0.0071,0.004,0.0039,0.0038,-0.008,0,0.0309,0.0374,0.0377,0.0439,0.0474,0.0453,0.0468,0.046,0.0441,0.0431,0.0354,0.034,0.0273,0.0262,0.0203,0.0108,0.0056,0.0107,-0.0059,-0.0064,-0.0077,-0.0079,0.0036,-0.0086,-0.0088,-0.0089,-0.009,0,0.0356,0.04,0.0473,0.0529,0.0542,0.0569,0.0599,0.0609,0.0576,0.0561,0.0518,0.0455,0.0384,0.0323,0.016,0.0195,0.0088,0.0003,-0.0004,-0.0048,-0.0095,-0.0108,-0.0104,-0.0103,-0.0102,-0.0101,-0.01,0,0.0399,0.0469,0.0536,0.0556,0.0604,0.0632,0.0654,0.065,0.0681,0.0648,0.0658,0.0548,0.0503,0.0352,0.017,0.0167,-0.002,-0.0049,-0.017,-0.0173,-0.0154,-0.0153,-0.0165,-0.0165,-0.0165,-0.0164,-0.0164,0,0.0451,0.0506,0.0566,0.0606,0.0692,0.0698,0.0777,0.0777,0.0793,0.0837,0.0734,0.0722,0.0508,0.0371,0.0197,-0.001,-0.0005,-0.0162,-0.0204,-0.0122,-0.0116,-0.016,-0.0158,-0.0169,-0.0168,-0.0167,-0.0166,0,0.0487,0.0523,0.0611,0.0685,0.0718,0.0779,0.0878,0.0933,0.0931,0.098,0.0976,0.0854,0.0668,0.044,0.0187,0.0039,-0.0164,-0.024,-0.0131,-0.0166,-0.0291,-0.0284,-0.0381,-0.0383,-0.0384,-0.0385,-0.0386,0,0.0513,0.056,0.0676,0.0742,0.0784,0.0882,0.0956,0.1002,0.1066,0.1056,0.1079,0.092,0.0804,0.0442,0.0187,-0.0153,-0.0204,-0.0308,-0.0305,-0.0281,-0.0313,-0.0303,-0.0294,-0.0388,-0.0389,-0.0389,-0.0389,0,0.0562,0.06,0.0675,0.0812,0.0912,0.1032,0.1134,0.1192,0.1233,0.1234,0.117,0.097,0.0752,0.0449,0.0181,-0.0063,-0.024,-0.0323,-0.0322,-0.032,-0.0291,-0.0319,-0.0309,-0.0394,-0.0393,-0.0393,-0.0393,0,0.06,0.0655,0.0753,0.0876,0.1008,0.1134,0.119,0.1255,0.1311,0.129,0.1259,0.1014,0.0869,0.0493,0.0247,0.0002,-0.0065,-0.0141,-0.015,-0.0148,-0.0054,0.0018,-0.0022,0,0,0,0,0,0.0635,0.0696,0.0809,0.0945,0.1079,0.1159,0.1289,0.1332,0.1367,0.1342,0.1307,0.1101,0.072,0.0551,0.0304,0.0204,-0.0118,-0.0096,-0.0211,-0.042,-0.0414,-0.0346,0,0,0,0,0,0,0.0653,0.0756,0.0808,0.0982,0.108,0.1236,0.1323,0.1352,0.1338,0.1323,0.1129,0.1028,0.0662,0.0858,0.0293,0.0216,0.0107,-0.0274,-0.028,-0.0423,-0.0418,-0.0413,-0.0342,0,0,0,0,0]}]]